Weather History for Deadhorse, AK

Change the Weather History Date:

Monday, March 25, 2013

  Actual Average Record
Temperature  
Mean Temperature -16 °F -  
Max Temperature -7 °F -5 °F 26 °F (1992)
Min Temperature -24 °F -19 °F -38 °F (2003)
Degree Days  
Heating Degree Days 80    
Moisture  
Dew Point -19 °F    
Average Humidity 75    
Maximum Humidity 84    
Minimum Humidity 71    
Precipitation  
Precipitation 0.00 in - - ()
Sea Level Pressure  
Sea Level Pressure 30.06 in    
Wind  
Wind Speed 5 mph (NE)    
Max Wind Speed 10 mph    
Max Gust Speed -    
Visibility 6 miles    
Events Snow    
Averages and records for this station are not official NWS values.
T = Trace of Precipitation, MM = Missing Value Source: NWS Daily Summary

Daily Weather History Graph

Daily Weather History Graph

Search for Another Location

Airport:

Trip Planner

Search our weather history database for the weather conditions in past years. The results will help you decide how hot, cold, wet, or windy it might be!

Date:

Astronomy

Mar. 25, 2013 Rise Set
Actual Time 7:27 AM AKDT 8:34 PM AKDT
Civil Twilight 6:23 AM AKDT 9:38 PM AKDT
Nautical Twilight 4:58 AM AKDT 11:05 PM AKDT
Astronomical Twilight 2:32 AM AKDT 1:27 AM AKDT
Moon 6:53 PM AKDT (3/25) 6:55 AM AKDT (3/25)
Length of Visible Light 15h 15m
Length of Day
13h 07m
Waxing Gibbous, 97% of the Moon is Illuminated
Mar 25
Waxing Gibbous
Mar 27
Full
Apr 2
Last Quarter
Apr 10
New
Apr 18
First Quarter

Hourly Weather History & Observations

Time (AKDT) Temp. Windchill Dew Point Humidity Pressure Visibility Wind Dir Wind Speed Gust Speed Precip Events Conditions
12:53 AM -22.0 °F -39.4 °F -27.9 °F 74% 30.13 in 10.0 mi SSW 6.9 mph - N/A   Partly Cloudy
1:53 AM -24.0 °F -41.8 °F -29.9 °F 74% 30.13 in 10.0 mi SW 6.9 mph - N/A   Clear
2:53 AM -24.0 °F -40.0 °F -29.9 °F 74% 30.13 in 10.0 mi SW 5.8 mph - N/A   Clear
3:53 AM -24.0 °F -41.8 °F -29.9 °F 74% 30.14 in 10.0 mi WSW 6.9 mph - N/A   Clear
4:53 AM -22.0 °F -33.0 °F -27.9 °F 74% 30.13 in 10.0 mi WNW 3.5 mph - N/A   Clear
5:53 AM -20.9 °F - -27.0 °F 73% 30.12 in 10.0 mi Calm Calm - N/A   Clear
6:53 AM -20.9 °F - -27.0 °F 73% 30.12 in 10.0 mi Calm Calm - N/A   Overcast
7:53 AM -20.0 °F - -26.0 °F 74% 30.11 in 10.0 mi Calm Calm - N/A   Overcast
8:53 AM -18.9 °F - -25.1 °F 74% 30.10 in 10.0 mi Calm Calm - N/A   Mostly Cloudy
9:53 AM -18.0 °F - -24.0 °F 74% 30.10 in 10.0 mi Calm Calm - N/A   Overcast
10:53 AM -15.0 °F - -22.0 °F 71% 30.09 in 3.0 mi Calm Calm - 0.00 in Snow Light Snow
11:53 AM -14.1 °F -26.3 °F -20.0 °F 75% 30.09 in 3.0 mi North 4.6 mph - 0.00 in Snow Light Snow
12:53 PM -11.9 °F -23.8 °F -18.0 °F 74% 30.08 in 5.0 mi NNE 4.6 mph - 0.00 in Snow Light Snow
1:53 PM -9.0 °F -22.3 °F -16.1 °F 71% 30.07 in 3.0 mi NE 5.8 mph - 0.00 in Snow Light Snow
2:25 PM -9.4 °F -22.7 °F -14.8 °F 77% 30.06 in 3.0 mi NE 5.8 mph - 0.00 in Snow Light Snow
2:53 PM -9.0 °F -23.8 °F -15.0 °F 75% 30.05 in 3.0 mi NE 6.9 mph - 0.00 in Snow Light Snow
3:06 PM -7.6 °F -23.4 °F -14.8 °F 71% 30.04 in 3.0 mi NE 8.1 mph - 0.00 in Snow Light Snow
3:53 PM -8.0 °F -26.1 °F -14.1 °F 75% 30.03 in 3.0 mi NE 10.4 mph - 0.00 in Snow Light Snow
4:53 PM -8.0 °F -23.9 °F -14.1 °F 75% 30.03 in 4.0 mi NE 8.1 mph - 0.00 in Snow Light Snow
5:53 PM -8.0 °F -26.1 °F -14.1 °F 75% 30.02 in 3.0 mi NE 10.4 mph - 0.00 in Snow Light Snow
6:53 PM -7.1 °F -22.8 °F -14.1 °F 72% 30.01 in 3.0 mi NE 8.1 mph - 0.00 in Snow Light Snow
7:04 PM -7.6 °F -24.6 °F -14.8 °F 71% 29.99 in 2.5 mi NE 9.2 mph - 0.00 in Snow Light Snow
7:50 PM -7.6 °F -20.6 °F -13.0 °F 77% 29.99 in 0.5 mi NE 5.8 mph - 0.00 in Snow Light Snow
7:53 PM -7.1 °F -19.9 °F -13.0 °F 75% 30.00 in 0.8 mi NE 5.8 mph - 0.00 in Snow Light Snow
8:33 PM -7.6 °F -16.5 °F -11.2 °F 84% 29.99 in 2.0 mi East 3.5 mph - 0.00 in Snow Light Snow
8:53 PM -7.1 °F - -11.9 °F 79% 29.99 in 3.0 mi Calm Calm - 0.00 in Snow Light Snow
9:53 PM -7.1 °F - -11.9 °F 79% 29.98 in 8.0 mi Calm Calm - 0.00 in Snow Light Snow
10:53 PM -7.1 °F -21.4 °F -13.0 °F 75% 29.97 in 10.0 mi SW 6.9 mph - 0.00 in Snow Light Snow
11:53 PM -7.1 °F -23.9 °F -13.0 °F 75% 29.96 in 5.0 mi WSW 9.2 mph - 0.00 in Snow Light Snow